Terminal Aerodrome Forecast
Issued by NWS

Home | Current Version | Previous Version | Text Only | Print | Product List | Glossary Off
Versions: 1 2 3 4 5 6 7 8 9 10 11 12 13 14 15 16 17 18

000
FTUS43 KICT 010218 AAA
TAFHUT
TAF AMD
KHUT 010218Z 0102/0124 17014KT 4SM -RA BR OVC005
     FM010600 24009KT P6SM -RA SCT005 OVC007
     FM011000 33018G25KT P6SM SCT007 BKN015
     FM011400 33024G33KT P6SM BKN015
     FM011900 33022G30KT P6SM BKN035=

USA.gov is the U.S. government's official web portal to all federal, state and local government web resources and services.